Regional Weather Roundup
Issued by NWS Albany, NY

Home | Current Version | Previous Version | Graphics & Text | Print | Product List | Glossary On
Versions: 1 2 3 4 5 6 7 8 9 10 11 12 13 14 15 16 17 18 19 20 21 22 23 24 25 26 27 28 29 30 31 32 33 34 35 36 37 38 39 40 41 42 43 44 45 46 47 48 49 50
000
ASUS41 KALY 240210
RWRALY

NEW YORK STATE HOURLY WEATHER ROUNDUP
NATIONAL WEATHER SERVICE ALBANY NY
1000 PM EDT WED JUL 23 2014

NOTE: "FAIR" INDICATES FEW OR NO CLOUDS BELOW 12,000 FEET WITH NO
SIGNIFICANT WEATHER AND/OR NO OBSTRUCTIONS TO VISIBILITY.

NYZ032-033-038>043-046>054-057>066-NYZ062>081-240300-
EAST


CITY           SKY/WX    TMP DP  RH WIND       PRES   REMARKS
ALBANY         CLOUDY    70  67  90 NW7       29.83R
GLENS FALLS    CLOUDY    72  67  84 N8        29.84R
POUGHKEEPSIE   CLOUDY    73  70  90 NW3       29.83R
NEWBURGH       PTCLDY    72  70  94 CALM      29.86R
MONTGOMERY     CLOUDY    72  70  93 SW5       29.85R
WHITE PLAINS   LGT RAIN  74  72  93 NW7       29.84R
ISLIP          MOCLDY    77  68  73 SW12      29.82R
NEW YORK CITY  LGT RAIN  78  69  73 W6        29.82R
CENTRAL PARK   LGT RAIN  74  71  91 W6        29.87R FOG
$$

NYZ005>009-017-018-044>046-055-056-240300-
CENTRAL


CITY           SKY/WX    TMP DP  RH WIND       PRES   REMARKS
FULTON         CLOUDY    68  57  68 N8        29.94R
SYRACUSE       CLOUDY    70  60  70 N9        29.92R
ROME           MOCLDY    66  62  87 VRB7      29.90R
ELMIRA         CLOUDY    67  62  84 N6        29.95R
BINGHAMTON     CLOUDY    64  63  94 NW8       29.94R
MONTICELLO     CLOUDY    70  68  94 W6        29.91R
$$

NYZ026>034-041>043-240300-
NORTH


CITY           SKY/WX    TMP DP  RH WIND       PRES   REMARKS
WATERTOWN      CLOUDY    69  55  60 N6        29.93R
FORT DRUM      NOT AVBL
MASSENA        PTCLDY    62  59  90 W5        29.89R
SARANAC LAKE   CLOUDY    61  57  87 VRB5      29.92R
PLATTSBURGH    LGT RAIN  69  59  70 NW6       29.85R
$$

NYZ001>004-010>016-019>021-240300-
WEST


CITY           SKY/WX    TMP DP  RH WIND       PRES   REMARKS
NIAGARA FALLS  MOCLDY    66  56  70 N5        29.99R
BUFFALO        MOCLDY    66  56  70 NW8       30.00R
DUNKIRK        CLOUDY    66  55  67 N12       30.01R
JAMESTOWN      CLOUDY    61  55  82 N8        30.03R
WELLSVILLE     CLOUDY    64  56  75 VRB3      30.02S
ROCHESTER      CLOUDY    68  58  70 NW6       29.98R
PENN YAN       CLOUDY    67  59  75 VRB5      29.97R
$$

             KEY
       WCI = WIND CHILL INDEX
       VSB = VISIBILITY
       HX  = HEAT INDEX
$$


USA.gov is the U.S. government's official web portal to all federal, state and local government web resources and services.